TGW480 WSSS-WMKI

Flight info

Callsign TGW480
Flight time 0h 49m
Altitude 36000
Route AROSO3A AROSO Y513 KALIL Y504 BILIK Y506 TEPUS TEPUS2E
Aircraft A320/M-SDFGHIRWYZ/LB1

Departure

Time 2026-04-13 14:26
Airport Singapore Changi Airport (WSSS)

Arrival

Time 2026-04-13 15:15
Airport Sultan Azlan Shah Airport (WMKI)
Time Latitude Longitude Altitude Speed Heading
2026-04-13 13:52 1.36439 103.99296 24 ft 0 kts 142°
2026-04-13 14:10 1.36449 103.99288 24 ft 4 kts 142°
2026-04-13 14:10 1.36470 103.99272 24 ft 4 kts 142°
2026-04-13 14:11 1.36491 103.99256 24 ft 4 kts 127°
2026-04-13 14:11 1.36496 103.99234 24 ft 4 kts 62°
2026-04-13 14:11 1.36485 103.99218 24 ft 0 kts 53°
2026-04-13 14:14 1.36488 103.99222 24 ft 2 kts 53°
2026-04-13 14:15 1.36502 103.99240 24 ft 5 kts 53°
2026-04-13 14:15 1.36529 103.99276 26 ft 8 kts 53°
2026-04-13 14:15 1.36567 103.99326 24 ft 10 kts 53°
2026-04-13 14:15 1.36577 103.99397 24 ft 12 kts 110°
2026-04-13 14:16 1.36541 103.99484 24 ft 15 kts 112°
2026-04-13 14:16 1.36497 103.99588 24 ft 18 kts 112°
2026-04-13 14:16 1.36445 103.99708 24 ft 19 kts 113°
2026-04-13 14:16 1.36397 103.99778 25 ft 11 kts 170°
2026-04-13 14:17 1.36320 103.99750 24 ft 13 kts 203°
2026-04-13 14:17 1.36228 103.99711 24 ft 16 kts 202°
2026-04-13 14:17 1.36120 103.99666 24 ft 18 kts 203°
2026-04-13 14:17 1.35996 103.99613 24 ft 21 kts 202°
2026-04-13 14:18 1.35854 103.99553 25 ft 23 kts 202°
2026-04-13 14:18 1.35695 103.99487 24 ft 26 kts 202°
2026-04-13 14:18 1.35525 103.99415 24 ft 28 kts 202°
2026-04-13 14:18 1.35356 103.99344 24 ft 24 kts 203°
2026-04-13 14:19 1.35196 103.99276 24 ft 26 kts 202°
2026-04-13 14:19 1.35026 103.99204 26 ft 25 kts 203°
2026-04-13 14:19 1.34857 103.99133 25 ft 26 kts 202°
2026-04-13 14:19 1.34686 103.99061 25 ft 28 kts 203°
2026-04-13 14:20 1.34511 103.98987 24 ft 28 kts 202°
2026-04-13 14:20 1.34334 103.98913 26 ft 27 kts 202°
2026-04-13 14:20 1.34154 103.98837 24 ft 27 kts 202°
2026-04-13 14:20 1.34037 103.98788 24 ft 28 kts 203°
2026-04-13 14:21 1.33864 103.98715 24 ft 27 kts 202°
2026-04-13 14:21 1.33690 103.98642 24 ft 28 kts 203°
2026-04-13 14:21 1.33458 103.98543 25 ft 28 kts 203°
2026-04-13 14:21 1.33291 103.98473 26 ft 23 kts 202°
2026-04-13 14:22 1.33197 103.98433 24 ft 20 kts 203°
2026-04-13 14:22 1.33094 103.98390 26 ft 14 kts 203°
2026-04-13 14:22 1.33021 103.98359 26 ft 11 kts 203°
2026-04-13 14:22 1.32965 103.98366 24 ft 10 kts 116°
2026-04-13 14:23 1.32945 103.98415 24 ft 8 kts 112°
2026-04-13 14:23 1.32925 103.98463 25 ft 7 kts 113°
2026-04-13 14:23 1.32919 103.98508 25 ft 7 kts 56°
2026-04-13 14:23 1.32946 103.98522 24 ft 1 kts 22°
2026-04-13 14:24 1.32948 103.98523 24 ft 0 kts 22°
2026-04-13 14:25 1.33000 103.98544 24 ft 34 kts 22°
2026-04-13 14:25 1.33449 103.98734 26 ft 103 kts 23°
2026-04-13 14:25 1.34283 103.99085 26 ft 155 kts 22°
2026-04-13 14:26 1.35342 103.99533 417 ft 167 kts 23°
2026-04-13 14:26 1.36422 103.99991 1136 ft 168 kts 23°
2026-04-13 14:26 1.37490 104.00441 1824 ft 162 kts 23°
2026-04-13 14:26 1.38596 104.00909 2395 ft 182 kts 24°
2026-04-13 14:27 1.39824 104.01429 2710 ft 202 kts 24°
2026-04-13 14:27 1.41199 104.02015 2954 ft 228 kts 24°
2026-04-13 14:27 1.42751 104.02668 3311 ft 253 kts 24°
2026-04-13 14:27 1.44387 104.03360 4207 ft 248 kts 24°
2026-04-13 14:28 1.45913 104.04005 5358 ft 241 kts 24°
2026-04-13 14:28 1.47588 104.04595 5757 ft 267 kts 12°
2026-04-13 14:28 1.49494 104.04706 6363 ft 280 kts 354°
2026-04-13 14:28 1.51397 104.04229 7150 ft 285 kts 336°
2026-04-13 14:29 1.53140 104.03323 7972 ft 288 kts 332°
2026-04-13 14:29 1.54946 104.02348 8788 ft 292 kts 332°
2026-04-13 14:29 1.56721 104.01392 9547 ft 295 kts 332°
2026-04-13 14:29 1.58538 104.00411 10298 ft 298 kts 332°
2026-04-13 14:30 1.60412 103.99396 10688 ft 317 kts 332°
2026-04-13 14:30 1.62418 103.98315 10864 ft 339 kts 332°
2026-04-13 14:30 1.64538 103.97173 11281 ft 350 kts 332°
2026-04-13 14:30 1.66698 103.96009 11881 ft 355 kts 331°
2026-04-13 14:31 1.68862 103.94839 12509 ft 359 kts 331°
2026-04-13 14:31 1.71073 103.93642 13156 ft 363 kts 331°
2026-04-13 14:31 1.73305 103.92428 13781 ft 367 kts 330°
2026-04-13 14:31 1.75423 103.90972 14393 ft 371 kts 319°
2026-04-13 14:32 1.77215 103.89130 14964 ft 369 kts 308°
2026-04-13 14:32 1.78794 103.87094 15436 ft 374 kts 307°
2026-04-13 14:32 1.80398 103.85016 15984 ft 379 kts 307°
2026-04-13 14:32 1.82018 103.82918 16527 ft 383 kts 307°
2026-04-13 14:33 1.83634 103.80823 17067 ft 386 kts 307°
2026-04-13 14:33 1.85283 103.78681 17611 ft 390 kts 307°
2026-04-13 14:33 1.86966 103.76498 18152 ft 393 kts 307°
2026-04-13 14:33 1.88647 103.74322 18678 ft 397 kts 307°
2026-04-13 14:34 1.90319 103.72156 19227 ft 400 kts 307°
2026-04-13 14:34 1.92023 103.69943 19757 ft 403 kts 307°
2026-04-13 14:34 1.93736 103.67714 20268 ft 407 kts 307°
2026-04-13 14:34 1.95468 103.65458 20791 ft 409 kts 307°
2026-04-13 14:35 1.97218 103.63184 21293 ft 413 kts 307°
2026-04-13 14:35 1.98975 103.60907 21775 ft 416 kts 307°
2026-04-13 14:35 2.00744 103.58608 22269 ft 418 kts 307°
2026-04-13 14:35 2.02533 103.56282 22733 ft 421 kts 307°
2026-04-13 14:36 2.04298 103.53987 23144 ft 424 kts 308°
2026-04-13 14:36 2.06103 103.51642 23554 ft 427 kts 308°
2026-04-13 14:36 2.07920 103.49280 23972 ft 429 kts 308°
2026-04-13 14:36 2.09743 103.46908 24373 ft 432 kts 308°
2026-04-13 14:37 2.11576 103.44523 24755 ft 434 kts 308°
2026-04-13 14:37 2.13387 103.42077 25141 ft 437 kts 303°
2026-04-13 14:37 2.14826 103.39387 25495 ft 440 kts 293°
2026-04-13 14:37 2.15800 103.36523 25855 ft 442 kts 286°
2026-04-13 14:38 2.16659 103.33560 26201 ft 444 kts 286°
2026-04-13 14:38 2.17531 103.30581 26532 ft 447 kts 287°
2026-04-13 14:38 2.18411 103.27594 26870 ft 449 kts 287°
2026-04-13 14:38 2.19300 103.24586 27180 ft 451 kts 287°
2026-04-13 14:39 2.20187 103.21570 27480 ft 452 kts 287°
2026-04-13 14:39 2.21075 103.18543 27767 ft 454 kts 287°
2026-04-13 14:39 2.21955 103.15540 28043 ft 457 kts 287°
2026-04-13 14:39 2.22847 103.12477 28343 ft 459 kts 287°
2026-04-13 14:40 2.23740 103.09398 28642 ft 461 kts 287°
2026-04-13 14:40 2.24637 103.06311 28935 ft 464 kts 287°
2026-04-13 14:40 2.25547 103.03202 29241 ft 466 kts 287°
2026-04-13 14:40 2.26452 103.00123 29537 ft 468 kts 287°
2026-04-13 14:41 2.27373 102.96991 29822 ft 470 kts 287°
2026-04-13 14:41 2.28295 102.93850 30118 ft 473 kts 287°
2026-04-13 14:41 2.29223 102.90682 30402 ft 474 kts 287°
2026-04-13 14:41 2.30152 102.87504 30668 ft 476 kts 287°
2026-04-13 14:42 2.31084 102.84310 30964 ft 477 kts 287°
2026-04-13 14:42 2.32013 102.81133 31347 ft 477 kts 287°
2026-04-13 14:42 2.32937 102.77984 31741 ft 476 kts 287°
2026-04-13 14:42 2.33870 102.74806 32135 ft 475 kts 287°
2026-04-13 14:43 2.34801 102.71629 32519 ft 475 kts 286°
2026-04-13 14:43 2.35731 102.68461 32908 ft 474 kts 286°
2026-04-13 14:43 2.36657 102.65308 33288 ft 473 kts 286°
2026-04-13 14:43 2.37584 102.62137 33667 ft 472 kts 286°
2026-04-13 14:44 2.38502 102.58991 34029 ft 471 kts 286°
2026-04-13 14:44 2.39406 102.55886 34404 ft 470 kts 286°
2026-04-13 14:44 2.40322 102.52738 34776 ft 470 kts 286°
2026-04-13 14:44 2.41232 102.49610 35141 ft 469 kts 286°
2026-04-13 14:45 2.42144 102.46489 35460 ft 467 kts 286°
2026-04-13 14:45 2.43059 102.43362 35762 ft 467 kts 286°
2026-04-13 14:45 2.43970 102.40242 35916 ft 468 kts 285°
2026-04-13 14:45 2.44882 102.37115 35944 ft 468 kts 285°
2026-04-13 14:46 2.47450 102.31212 35944 ft 468 kts 303°
2026-04-13 14:46 2.51302 102.25947 35943 ft 468 kts 306°
2026-04-13 14:47 2.55169 102.20704 35942 ft 468 kts 306°
2026-04-13 14:47 2.58996 102.15484 35945 ft 467 kts 306°
2026-04-13 14:48 2.62847 102.10224 35940 ft 467 kts 306°
2026-04-13 14:48 2.66710 102.04978 35947 ft 468 kts 306°
2026-04-13 14:49 2.70578 101.99734 35948 ft 468 kts 306°
2026-04-13 14:49 2.74423 101.94526 35947 ft 468 kts 306°
2026-04-13 14:50 2.78279 101.89289 35947 ft 468 kts 306°
2026-04-13 14:50 2.82147 101.84028 35948 ft 468 kts 306°
2026-04-13 14:51 2.86001 101.78778 35949 ft 468 kts 306°
2026-04-13 14:51 2.89841 101.73554 35950 ft 468 kts 306°
2026-04-13 14:52 2.93710 101.68300 35958 ft 468 kts 306°
2026-04-13 14:52 2.97574 101.63052 35956 ft 468 kts 306°
2026-04-13 14:53 3.01433 101.57801 35946 ft 468 kts 306°
2026-04-13 14:53 3.05270 101.52575 35948 ft 467 kts 306°
2026-04-13 14:54 3.09126 101.47328 35943 ft 467 kts 306°
2026-04-13 14:54 3.12959 101.42113 35818 ft 467 kts 306°
2026-04-13 14:55 3.14887 101.39489 35565 ft 467 kts 306°
2026-04-13 14:55 3.16814 101.36866 35312 ft 466 kts 306°
2026-04-13 14:55 3.18735 101.34248 35057 ft 466 kts 306°
2026-04-13 14:55 3.20635 101.31665 34612 ft 467 kts 306°
2026-04-13 14:56 3.22575 101.29028 33640 ft 473 kts 307°
2026-04-13 14:56 3.24536 101.26364 32708 ft 477 kts 306°
2026-04-13 14:56 3.26511 101.23679 31927 ft 476 kts 307°
2026-04-13 14:56 3.28460 101.21026 31386 ft 472 kts 306°
2026-04-13 14:57 3.30395 101.18393 30768 ft 467 kts 307°
2026-04-13 14:57 3.32342 101.15806 30171 ft 462 kts 310°
2026-04-13 14:57 3.34594 101.13531 29565 ft 457 kts 320°
2026-04-13 14:58 3.39945 101.10327 28409 ft 448 kts 336°
2026-04-13 14:58 3.42778 101.09061 27824 ft 444 kts 336°
2026-04-13 14:58 3.45582 101.07804 27252 ft 440 kts 336°
2026-04-13 14:58 3.48373 101.06552 26682 ft 437 kts 336°
2026-04-13 14:59 3.51136 101.05312 26126 ft 433 kts 336°
2026-04-13 14:59 3.53882 101.04077 25578 ft 429 kts 336°
2026-04-13 14:59 3.56559 101.02873 25056 ft 425 kts 336°
2026-04-13 14:59 3.59251 101.01665 24540 ft 422 kts 336°
2026-04-13 15:00 3.61930 101.00464 24043 ft 418 kts 336°
2026-04-13 15:00 3.64576 100.99276 23555 ft 415 kts 336°
2026-04-13 15:00 3.67237 100.98152 23059 ft 413 kts 344°
2026-04-13 15:00 3.70045 100.97746 22721 ft 405 kts
2026-04-13 15:01 3.72783 100.98246 22290 ft 400 kts 21°
2026-04-13 15:01 3.75280 100.99457 21803 ft 397 kts 29°
2026-04-13 15:01 3.77671 101.00760 21303 ft 395 kts 30°
2026-04-13 15:01 3.80057 101.02062 20667 ft 387 kts 30°
2026-04-13 15:02 3.82426 101.03349 19735 ft 390 kts 29°
2026-04-13 15:02 3.84808 101.04637 19291 ft 387 kts 29°
2026-04-13 15:02 3.87168 101.05907 18838 ft 382 kts 30°
2026-04-13 15:02 3.89502 101.07165 18334 ft 380 kts 30°
2026-04-13 15:03 3.91826 101.08415 17837 ft 377 kts 30°
2026-04-13 15:03 3.94130 101.09652 17348 ft 374 kts 30°
2026-04-13 15:03 3.96420 101.10884 16856 ft 371 kts 30°
2026-04-13 15:03 3.98660 101.12094 16393 ft 368 kts 30°
2026-04-13 15:04 4.00900 101.13307 15894 ft 365 kts 29°
2026-04-13 15:04 4.03133 101.14523 15422 ft 362 kts 30°
2026-04-13 15:04 4.05335 101.15728 14953 ft 359 kts 30°
2026-04-13 15:04 4.07590 101.16794 14482 ft 357 kts 19°
2026-04-13 15:05 4.09951 101.17562 14007 ft 354 kts 19°
2026-04-13 15:05 4.12234 101.18344 13430 ft 347 kts 20°
2026-04-13 15:05 4.13011 101.18613 13119 ft 346 kts 20°
2026-04-13 15:06 4.14609 101.18988 13830 ft 264 kts
2026-04-13 15:06 4.16411 101.19083 14671 ft 277 kts
2026-04-13 15:06 4.18477 101.19477 14390 ft 326 kts 12°
2026-04-13 15:06 4.20875 101.19873 13982 ft 367 kts 11°
2026-04-13 15:07 4.23313 101.20262 13742 ft 350 kts
2026-04-13 15:07 4.25654 101.20627 13618 ft 329 kts
2026-04-13 15:07 4.27884 101.20975 13300 ft 319 kts
2026-04-13 15:07 4.30055 101.21310 12706 ft 311 kts 10°
2026-04-13 15:08 4.32178 101.21646 12024 ft 306 kts
2026-04-13 15:08 4.34274 101.21984 11359 ft 304 kts
2026-04-13 15:08 4.36348 101.22326 10728 ft 300 kts
2026-04-13 15:08 4.38400 101.22668 10110 ft 297 kts
2026-04-13 15:09 4.40428 101.23003 9490 ft 294 kts
2026-04-13 15:09 4.42427 101.23331 8907 ft 289 kts
2026-04-13 15:09 4.44324 101.23647 8752 ft 270 kts
2026-04-13 15:09 4.46115 101.23958 8533 ft 255 kts
2026-04-13 15:10 4.47852 101.24270 8075 ft 252 kts
2026-04-13 15:10 4.49578 101.24397 7558 ft 249 kts 352°
2026-04-13 15:10 4.51210 101.23822 6896 ft 252 kts 327°
2026-04-13 15:10 4.52660 101.22837 6232 ft 256 kts 326°
2026-04-13 15:11 4.53633 101.22165 5873 ft 256 kts 325°
2026-04-13 15:11 4.55092 101.21165 5361 ft 251 kts 326°
2026-04-13 15:11 4.56504 101.20196 4704 ft 242 kts 326°
2026-04-13 15:11 4.57870 101.19253 4067 ft 234 kts 326°
2026-04-13 15:12 4.59188 101.18351 3455 ft 225 kts 326°
2026-04-13 15:12 4.60453 101.17478 2869 ft 217 kts 326°
2026-04-13 15:12 4.61670 101.16642 2445 ft 204 kts 326°
2026-04-13 15:12 4.62665 101.15731 2122 ft 192 kts 297°
2026-04-13 15:13 4.62750 101.14498 1827 ft 173 kts 247°
2026-04-13 15:13 4.62036 101.13634 1565 ft 154 kts 222°
2026-04-13 15:13 4.61246 101.12953 1333 ft 147 kts 220°
2026-04-13 15:13 4.60468 101.12304 1107 ft 144 kts 220°
2026-04-13 15:14 4.59703 101.11659 881 ft 143 kts 220°
2026-04-13 15:14 4.58948 101.11017 659 ft 142 kts 221°
2026-04-13 15:14 4.58199 101.10377 441 ft 141 kts 219°
2026-04-13 15:14 4.57426 101.09769 183 ft 141 kts 222°
2026-04-13 15:15 4.56759 101.09171 125 ft 103 kts 221°
2026-04-13 15:15 4.56449 101.08898 127 ft 22 kts 221°
2026-04-13 15:15 4.56331 101.08795 129 ft 23 kts 221°
2026-04-13 15:15 4.56214 101.08691 132 ft 18 kts 222°
2026-04-13 15:16 4.56125 101.08643 132 ft 8 kts 200°
2026-04-13 15:16 4.56126 101.08607 132 ft 3 kts 358°
2026-04-13 15:16 4.56134 101.08616 132 ft 1 kts 50°
2026-04-13 15:16 4.56135 101.08617 132 ft 0 kts 50°
2026-04-13 15:18 4.56152 101.08628 132 ft 7 kts 48°
2026-04-13 15:18 4.56193 101.08675 133 ft 11 kts 40°
2026-04-13 15:18 4.56260 101.08733 131 ft 15 kts 41°
2026-04-13 15:18 4.56349 101.08811 128 ft 19 kts 40°
2026-04-13 15:19 4.56456 101.08905 126 ft 22 kts 41°
2026-04-13 15:19 4.56568 101.09002 124 ft 19 kts 42°
2026-04-13 15:19 4.56642 101.09069 123 ft 14 kts 42°
2026-04-13 15:19 4.56719 101.09137 125 ft 15 kts 41°
2026-04-13 15:20 4.56802 101.09209 126 ft 17 kts 41°
2026-04-13 15:20 4.56886 101.09283 128 ft 13 kts 41°
2026-04-13 15:20 4.56915 101.09333 129 ft 8 kts 96°
2026-04-13 15:20 4.56881 101.09380 130 ft 8 kts 133°
2026-04-13 15:21 4.56840 101.09425 131 ft 9 kts 132°
2026-04-13 15:21 4.56845 101.09474 131 ft 9 kts 30°
2026-04-13 15:21 4.56904 101.09510 131 ft 11 kts 33°
2026-04-13 15:21 4.56966 101.09561 131 ft 12 kts 40°
2026-04-13 15:22 4.57031 101.09618 132 ft 13 kts 42°
2026-04-13 15:22 4.57092 101.09674 132 ft 10 kts 42°
2026-04-13 15:22 4.57123 101.09717 132 ft 6 kts 96°
2026-04-13 15:22 4.57099 101.09756 132 ft 7 kts 92°
2026-04-13 15:23 4.57100 101.09790 132 ft 5 kts 125°
2026-04-13 15:23 4.57085 101.09807 132 ft 3 kts 134°
2026-04-13 15:23 4.57074 101.09805 132 ft 2 kts 197°
2026-04-13 15:23 4.57071 101.09803 132 ft 0 kts 207°